DW0268 Weather Reports


time (UTC)temp
C
wind
direction
speed
KPH
gust
KPH
rain 1hr
cm
rain 24hr
cm
rain mn
cm
humidity
%
barometer
mb
20260509153026 20 266 8.0 16.1 0.00 0.00 0.00 75 1013.6
20260509151524 20 302 4.8 11.3 0.00 0.00 0.00 77 1013.6
20260509150021 19 293 3.2 9.7 0.00 0.00 0.00 79 1013.5
20260509144530 19 360 4.8 12.9 0.00 0.00 0.00 80 1013.5
20260509143017 18 271 8.0 12.9 0.00 0.00 0.00 81 1013.7
20260509141514 18 229 4.8 12.9 0.00 0.00 0.00 84 1013.5
20260509140010 17 235 3.2 12.9 0.00 0.00 0.00 85 1013.4
20260509134509 17 219 6.4 11.3 0.00 0.00 0.00 86 1013.3
20260509133012 16 232 3.2 8.0 0.00 0.00 0.00 89 1013.1
20260509131506 16 360 3.2 6.4 0.00 0.00 0.00 89 1013.0
20260509130005 15 221 3.2 6.4 0.00 0.00 0.00 90 1012.9
20260509124502 15 284 1.6 3.2 0.00 0.00 0.00 91 1012.5
20260509123001 14 285 0.0 0.0 0.00 0.00 0.00 92 1012.5
20260509121600 13 285 1.6 4.8 0.00 0.00 0.00 92 1012.3
20260509114558 13 285 1.6 4.8 0.00 0.00 0.00 92 1012.1
20260509113106 13 284 1.6 6.4 0.00 0.00 0.00 92 1011.9
20260509111654 13 301 4.8 8.0 0.00 0.00 0.00 92 1011.8
20260509110053 13 303 4.8 8.0 0.00 0.00 0.00 91 1011.7
20260509104552 13 302 6.4 11.3 0.00 0.00 0.00 91 1011.6
20260509103051 13 274 4.8 6.4 0.00 0.00 0.00 92 1011.4
20260509101549 13 215 3.2 6.4 0.00 0.00 0.00 91 1011.4
20260509100047 13 215 4.8 11.3 0.00 0.00 0.00 91 1011.3
20260509094545 13 210 8.0 11.3 0.00 0.00 0.00 91 1011.2
20260509093043 14 207 6.4 8.0 0.00 0.00 0.00 90 1011.2
20260509091541 14 201 4.8 9.7 0.00 0.00 0.00 89 1011.2
20260509090038 15 222 4.8 6.4 0.00 0.00 0.00 88 1011.4
20260509084538 15 222 6.4 11.3 0.00 0.00 0.00 88 1011.3
20260509083039 15 238 4.8 8.0 0.00 0.00 0.00 87 1011.2
20260509081537 15 259 8.0 9.7 0.00 0.00 0.00 87 1011.1
20260509080039 15 281 4.8 11.3 0.00 0.00 0.00 87 1011.2
20260509074530 16 328 3.2 9.7 0.00 0.00 0.00 85 1011.2
20260509073027 16 310 6.4 16.1 0.00 0.00 0.00 84 1011.0
20260509071524 16 211 12.9 24.1 0.00 0.00 0.00 83 1010.8
20260509070023 17 211 14.5 22.5 0.00 0.00 0.00 82 1011.0
20260509064523 17 217 17.7 25.7 0.00 0.00 0.00 81 1011.1
20260509063020 17 225 19.3 30.6 0.00 0.00 0.00 81 1011.3
20260509061516 17 215 16.1 22.5 0.00 0.00 0.00 82 1011.2
20260509060016 16 199 12.9 19.3 0.00 0.00 0.00 82 1011.4
20260509054512 16 203 11.3 16.1 0.00 0.00 0.00 82 1011.6
20260509053013 16 198 11.3 19.3 0.00 0.00 0.00 80 1011.7
20260509051508 16 182 14.5 20.9 0.00 0.00 0.00 80 1011.4
20260509050006 16 186 12.9 19.3 0.00 0.00 0.00 78 1011.5
20260509044503 17 181 9.7 16.1 0.00 0.00 0.00 77 1011.8
20260509043002 17 192 9.7 16.1 0.00 0.00 0.00 75 1011.8
20260509041504 17 202 11.3 17.7 0.00 0.00 0.00 74 1012.1
20260509040001 16 180 12.9 17.7 0.00 0.00 0.00 76 1011.7
20260509034601 16 209 9.7 11.3 0.00 0.00 0.00 77 1012.5
20260509033100 16 221 6.4 11.3 0.00 0.00 0.00 75 1012.5
20260509031600 17 225 8.0 11.3 0.00 0.00 0.00 73 1012.5
20260509030059 17 240 8.0 12.9 0.00 0.00 0.00 74 1012.7
20260509024600 17 211 3.2 9.7 0.00 0.00 0.00 73 1012.4
20260509023104 18 200 8.0 12.9 0.00 0.00 0.00 70 1012.0
20260509021557 18 184 9.7 14.5 0.00 0.00 0.00 70 1011.6
20260509020059 17 198 9.7 12.9 0.00 0.00 0.00 71 1011.7
20260509014554 18 202 6.4 16.1 0.00 0.00 0.00 68 1011.7
20260509013059 18 213 9.7 12.9 0.00 0.00 0.00 66 1011.8
20260509011552 19 209 9.7 14.5 0.00 0.00 0.00 63 1011.6
20260509010050 20 210 12.9 27.4 0.00 0.00 0.00 60 1011.8
20260509004551 21 211 16.1 27.4 0.00 0.00 0.00 58 1011.7
20260509003057 21 215 17.7 29.0 0.00 0.00 0.00 58 1012.1
20260509001545 22 204 19.3 32.2 0.00 0.00 0.00 55 1012.2
20260509000047 22 211 20.9 27.4 0.00 0.00 0.00 53 1012.3
20260508234544 22 210 19.3 29.0 0.00 0.00 0.00 52 1012.5
20260508233043 23 197 19.3 27.4 0.00 0.00 0.00 49 1012.4
20260508231542 23 212 19.3 27.4 0.00 0.00 0.00 49 1012.2
20260508230043 23 203 17.7 27.4 0.00 0.00 0.00 48 1012.3
20260508224538 23 190 17.7 29.0 0.00 0.00 0.00 46 1012.3
20260508223040 23 213 19.3 33.8 0.00 0.00 0.00 49 1012.5
20260508221536 23 216 17.7 25.7 0.00 0.00 0.00 48 1012.7
20260508220033 23 195 19.3 32.2 0.00 0.00 0.00 47 1012.7
20260508214532 23 221 16.1 29.0 0.00 0.00 0.00 47 1012.7
20260508213029 23 212 17.7 24.1 0.00 0.00 0.00 47 1012.9
20260508211528 23 212 16.1 25.7 0.00 0.00 0.00 49 1013.1
20260508210024 23 188 17.7 30.6 0.00 0.00 0.00 49 1013.3
20260508204522 23 161 14.5 29.0 0.00 0.00 0.00 50 1013.2
20260508203021 23 213 14.5 25.7 0.00 0.00 0.00 51 1013.3
20260508201524 23 211 19.3 29.0 0.00 0.00 0.00 52 1013.7
20260508200021 23 174 17.7 24.1 0.00 0.00 0.00 55 1013.8
20260508194515 22 181 17.7 32.2 0.00 0.00 0.00 54 1014.1
20260508193017 22 205 19.3 30.6 0.00 0.00 0.00 53 1014.2
20260508191515 22 184 14.5 30.6 0.00 0.00 0.00 57 1014.4
20260508190008 22 200 17.7 40.2 0.00 0.00 0.00 56 1014.8
20260508184507 22 194 16.1 32.2 0.00 0.00 0.00 58 1015.3
20260508183001 22 235 20.9 35.4 0.00 0.00 0.00 57 1015.6
20260508181632 22 186 17.7 29.0 0.00 0.00 0.00 60 1015.8
20260508174601 21 214 17.7 30.6 0.00 0.00 0.00 61 1016.3
20260508173051 21 198 20.9 32.2 0.00 0.00 0.00 63 1016.5
20260508171549 21 210 17.7 29.0 0.00 0.00 0.00 63 1016.8
20260508170045 20 205 20.9 35.4 0.00 0.00 0.00 61 1017.0
20260508164543 20 180 17.7 32.2 0.00 0.00 0.00 63 1017.2
20260508163042 20 186 19.3 33.8 0.00 0.00 0.00 64 1017.4
20260508161538 20 196 25.7 35.4 0.00 0.00 0.00 63 1017.5
20260508160034 20 209 16.1 25.7 0.00 0.00 0.00 68 1017.6
20260508154532 19 170 16.1 24.1 0.00 0.00 0.00 68 1017.7